TimeCST,TemperatureF,Dew PointF,Humidity,Sea Level PressureIn,VisibilityMPH,Wind Direction,Wind SpeedMPH,Gust SpeedMPH,PrecipitationIn,Events,Conditions,WindDirDegrees,DateUTC
12:15 AM,53.6,53.2,99,29.90,10.0,South,15.0,20.7,N/A,Rain,Light Rain,180,2013-11-06 06:15:00
12:35 AM,53.6,53.6,100,29.89,7.0,South,16.1,27.6,0.01,Rain,Rain,180,2013-11-06 06:35:00
12:55 AM,53.6,53.6,100,29.89,10.0,South,15.0,19.6,0.02,Rain,Rain,180,2013-11-06 06:55:00
1:15 AM,53.6,53.6,100,29.88,7.0,South,13.8,19.6,0.02,Rain,Rain,180,2013-11-06 07:15:00
1:35 AM,53.8,53.8,100,29.87,10.0,South,17.3,21.9,0.03,,Overcast,180,2013-11-06 07:35:00
1:55 AM,54.0,54.0,100,29.86,10.0,South,12.7,19.6,0.03,Rain,Rain,180,2013-11-06 07:55:00
2:15 AM,54.0,54.0,100,29.85,10.0,South,15.0,20.7,N/A,Rain,Rain,180,2013-11-06 08:15:00
2:35 AM,54.0,54.0,100,29.85,7.0,South,15.0,19.6,0.02,Rain,Rain,180,2013-11-06 08:35:00
2:55 AM,54.1,54.1,100,29.84,10.0,South,12.7,20.7,0.02,Rain,Light Rain,180,2013-11-06 08:55:00
3:15 AM,54.1,54.1,100,29.84,10.0,South,13.8,18.4,0.01,Rain,Light Rain,180,2013-11-06 09:15:00
3:35 AM,54.5,54.5,100,29.84,7.0,South,17.3,20.7,0.04,Rain,Rain,190,2013-11-06 09:35:00
3:55 AM,54.5,54.5,100,29.83,7.0,South,13.8,20.7,0.07,Rain,Rain,180,2013-11-06 09:55:00
4:15 AM,54.7,54.7,100,29.82,10.0,South,13.8,-,0.02,Rain,Light Rain,190,2013-11-06 10:15:00
4:35 AM,55.0,55.0,100,29.82,10.0,South,15.0,20.7,0.02,,Light Drizzle,180,2013-11-06 10:35:00
4:55 AM,55.0,55.0,100,29.82,10.0,South,12.7,-,0.02,Rain,Light Rain,180,2013-11-06 10:55:00
5:15 AM,55.4,55.4,100,29.83,10.0,South,12.7,18.4,N/A,,Light Drizzle,190,2013-11-06 11:15:00
5:35 AM,55.6,55.6,100,29.82,10.0,South,13.8,20.7,N/A,,Drizzle,190,2013-11-06 11:35:00
5:55 AM,55.8,55.8,100,29.82,10.0,South,13.8,-,0.01,Rain,Light Rain,180,2013-11-06 11:55:00
6:15 AM,55.9,55.9,100,29.82,10.0,South,13.8,-,0.01,Rain,Light Rain,190,2013-11-06 12:15:00
6:35 AM,56.3,56.3,100,29.83,10.0,SW,16.1,-,0.02,Rain,Rain,220,2013-11-06 12:35:00
6:55 AM,48.7,48.2,98,29.86,10.0,West,17.3,27.6,0.02,,Light Drizzle,280,2013-11-06 12:55:00
7:15 AM,47.5,47.3,99,29.86,10.0,West,18.4,-,0.01,Rain,Light Rain,280,2013-11-06 13:15:00
7:35 AM,44.1,43.5,98,29.88,7.0,West,21.9,26.5,0.01,Rain,Light Rain,280,2013-11-06 13:35:00
7:55 AM,43.0,43.0,100,29.90,10.0,West,21.9,-,0.02,Rain,Light Rain,280,2013-11-06 13:55:00
8:15 AM,42.3,42.3,100,29.91,3.0,West,17.3,23.0,N/A,Rain,Light Rain,270,2013-11-06 14:15:00
8:35 AM,41.0,41.0,100,29.90,3.0,West,18.4,-,N/A,,Overcast,280,2013-11-06 14:35:00
8:55 AM,40.6,40.6,100,29.94,10.0,West,15.0,26.5,N/A,,Overcast,280,2013-11-06 14:55:00
9:15 AM,40.3,39.6,97,29.94,7.0,West,21.9,27.6,N/A,,Overcast,280,2013-11-06 15:15:00
9:35 AM,40.1,40.1,100,29.96,7.0,WNW,20.7,25.3,N/A,,Light Drizzle,290,2013-11-06 15:35:00
9:55 AM,40.1,39.4,97,29.98,10.0,West,20.7,28.8,N/A,,Overcast,280,2013-11-06 15:55:00
10:15 AM,40.1,39.2,97,29.98,10.0,WNW,20.7,25.3,N/A,,Overcast,290,2013-11-06 16:15:00
10:35 AM,40.5,38.5,93,29.99,10.0,WNW,16.1,26.5,N/A,,Overcast,290,2013-11-06 16:35:00
10:55 AM,40.3,38.3,93,29.99,10.0,WNW,16.1,27.6,N/A,,Overcast,300,2013-11-06 16:55:00
11:15 AM,40.1,39.2,97,30.01,10.0,WNW,18.4,21.9,N/A,,Overcast,290,2013-11-06 17:15:00
11:35 AM,40.6,37.9,90,30.01,10.0,WNW,18.4,27.6,N/A,,Overcast,290,2013-11-06 17:35:00
11:55 AM,40.1,38.3,93,30.01,10.0,WNW,17.3,23.0,N/A,,Overcast,290,2013-11-06 17:55:00
12:15 PM,40.3,38.3,93,30.02,10.0,NW,15.0,26.5,N/A,,Overcast,310,2013-11-06 18:15:00
12:35 PM,41.0,38.7,91,30.02,10.0,NW,18.4,24.2,N/A,,Overcast,310,2013-11-06 18:35:00
12:55 PM,42.1,37.9,85,30.03,10.0,WNW,13.8,24.2,N/A,,Overcast,300,2013-11-06 18:55:00
1:15 PM,41.9,38.1,86,30.04,10.0,WNW,17.3,-,N/A,,Overcast,300,2013-11-06 19:15:00
1:35 PM,42.1,38.5,87,30.05,10.0,WNW,13.8,-,N/A,,Overcast,300,2013-11-06 19:35:00
1:55 PM,42.8,38.1,84,30.06,10.0,NW,15.0,20.7,N/A,,Overcast,310,2013-11-06 19:55:00
2:15 PM,43.5,38.8,84,30.07,10.0,WNW,15.0,20.7,N/A,,Overcast,300,2013-11-06 20:15:00
2:35 PM,43.2,37.8,81,30.08,10.0,WNW,13.8,25.3,N/A,,Overcast,300,2013-11-06 20:35:00
2:55 PM,44.1,37.6,78,30.09,10.0,WNW,16.1,19.6,N/A,,Overcast,300,2013-11-06 20:55:00
3:15 PM,43.9,37.6,78,30.09,10.0,WNW,11.5,-,N/A,,Overcast,290,2013-11-06 21:15:00
3:35 PM,44.1,37.9,79,30.10,10.0,WNW,16.1,-,N/A,,Mostly Cloudy,290,2013-11-06 21:35:00
3:55 PM,43.2,38.1,82,30.11,10.0,WNW,10.4,-,N/A,,Scattered Clouds,290,2013-11-06 21:55:00
4:15 PM,43.9,37.8,79,30.11,10.0,WNW,15.0,20.7,N/A,,Scattered Clouds,290,2013-11-06 22:15:00
4:35 PM,42.6,36.9,80,30.12,10.0,WNW,10.4,-,N/A,,Scattered Clouds,290,2013-11-06 22:35:00
4:55 PM,40.8,36.9,86,30.13,10.0,WNW,10.4,-,N/A,,Clear,290,2013-11-06 22:55:00
5:15 PM,40.5,34.7,80,30.14,10.0,WNW,10.4,-,N/A,,Clear,290,2013-11-06 23:15:00
5:35 PM,38.3,34.7,87,30.15,10.0,WNW,8.1,-,N/A,,Clear,290,2013-11-06 23:35:00
5:55 PM,37.0,33.6,87,30.16,10.0,WNW,6.9,-,N/A,,Clear,290,2013-11-06 23:55:00
6:15 PM,36.5,32.9,87,30.17,10.0,West,8.1,-,N/A,,Clear,280,2013-11-07 00:15:00
6:35 PM,36.1,32.4,86,30.18,10.0,WNW,6.9,-,N/A,,Clear,290,2013-11-07 00:35:00
6:55 PM,35.2,32.0,88,30.18,10.0,WNW,5.8,-,N/A,,Clear,290,2013-11-07 00:55:00
7:15 PM,34.3,32.0,91,30.19,10.0,WNW,4.6,-,N/A,,Clear,290,2013-11-07 01:15:00
7:35 PM,33.3,31.5,93,30.18,10.0,West,3.5,-,N/A,,Clear,280,2013-11-07 01:35:00
7:55 PM,32.9,30.9,92,30.19,10.0,West,5.8,-,N/A,,Clear,280,2013-11-07 01:55:00
8:15 PM,32.7,30.6,92,30.20,10.0,West,5.8,-,N/A,,Clear,280,2013-11-07 02:15:00
8:35 PM,32.4,30.2,92,30.20,10.0,West,4.6,-,N/A,,Clear,280,2013-11-07 02:35:00
8:55 PM,32.0,30.2,93,30.21,10.0,West,5.8,-,N/A,,Clear,280,2013-11-07 02:55:00
9:15 PM,31.8,30.0,93,30.22,10.0,West,5.8,-,N/A,,Clear,280,2013-11-07 03:15:00
9:35 PM,32.0,29.8,92,30.22,10.0,WNW,8.1,-,N/A,,Clear,290,2013-11-07 03:35:00
9:55 PM,32.0,29.5,90,30.23,10.0,West,5.8,-,N/A,,Clear,280,2013-11-07 03:55:00
10:15 PM,31.6,29.3,91,30.23,10.0,West,4.6,-,N/A,,Clear,280,2013-11-07 04:15:00
10:35 PM,31.1,28.8,91,30.24,10.0,West,4.6,-,N/A,,Clear,280,2013-11-07 04:35:00
10:55 PM,30.6,28.4,92,30.24,10.0,West,6.9,-,N/A,,Clear,280,2013-11-07 04:55:00
11:15 PM,30.4,28.0,91,30.24,10.0,West,3.5,-,N/A,,Clear,280,2013-11-07 05:15:00
11:35 PM,30.2,28.0,92,30.24,10.0,West,4.6,-,N/A,,Clear,280,2013-11-07 05:35:00
11:55 PM,30.0,27.9,92,30.24,10.0,West,3.5,-,N/A,,Clear,280,2013-11-07 05:55:00